GW7026 Weather Reports


time (UTC)temp
C
wind
direction
speed
KPH
gust
KPH
rain 1hr
cm
rain 24hr
cm
rain mn
cm
humidity
%
barometer
mb
20260508064541 11 0 1.6 9.7 0.00 0.00 0.00 23 1018.9
20260508063056 11 40 1.6 6.4 0.00 0.00 0.00 22 1018.8
20260508061541 11 322 1.6 4.8 0.00 0.00 0.00 22 1018.7
20260508060038 11 327 3.2 9.7 0.00 0.00 0.00 21 1018.7
20260508054540 12 41 3.2 8.0 0.00 0.00 0.00 21 1018.7
20260508053036 12 340 1.6 9.7 0.00 0.00 0.00 21 1018.7
20260508051541 12 0 1.6 8.0 0.00 0.00 0.00 21 1018.6
20260508050042 12 355 1.6 8.0 0.00 0.00 0.00 21 1018.6
20260508044537 12 41 0.0 8.0 0.00 0.00 0.00 20 1018.7
20260508043053 13 0 0.0 6.4 0.00 0.00 0.00 18 1018.7
20260508041549 14 0 0.0 3.2 0.00 0.00 0.00 17 1018.6
20260508040041 15 0 0.0 3.2 0.00 0.00 0.00 16 1018.7
20260508034545 16 0 1.6 6.4 0.00 0.00 0.00 14 1018.6
20260508033044 16 40 0.0 6.4 0.00 0.00 0.00 14 1018.4
20260508031541 17 0 0.0 6.4 0.00 0.00 0.00 13 1018.1
20260508030043 17 0 0.0 4.8 0.00 0.00 0.00 12 1018.0
20260508024540 18 74 1.6 8.0 0.00 0.00 0.00 12 1017.7
20260508023043 17 265 1.6 8.0 0.00 0.00 0.00 12 1017.5
20260508021546 18 0 0.0 0.0 0.00 0.00 0.00 12 1017.3
20260508020047 18 258 0.0 11.3 0.00 0.00 0.00 11 1017.1
20260508014549 20 0 1.6 11.3 0.00 0.00 0.00 10 1016.9
20260508013052 20 253 3.2 19.3 0.00 0.00 0.00 9 1016.8
20260508011544 21 258 6.4 12.9 0.00 0.00 0.00 9 1016.6
20260508010040 22 263 8.0 19.3 0.00 0.00 0.00 9 1016.6
20260508004540 22 276 8.0 19.3 0.00 0.00 0.00 9 1016.5
20260508003040 23 230 8.0 24.1 0.00 0.00 0.00 8 1016.4
20260508001739 23 252 8.0 24.1 0.00 0.00 0.00 8 1016.3
20260508000047 23 300 4.8 19.3 0.00 0.00 0.00 9 1016.3
20260507234540 24 256 8.0 19.3 0.00 0.00 0.00 8 1016.5
20260507233043 24 323 8.0 17.7 0.00 0.00 0.00 8 1016.4
20260507231543 24 305 9.7 20.9 0.00 0.00 0.00 9 1016.5
20260507230041 24 238 8.0 24.1 0.00 0.00 0.00 9 1016.6
20260507224543 24 254 6.4 24.1 0.00 0.00 0.00 9 1016.8
20260507223043 24 288 11.3 30.6 0.00 0.00 0.00 8 1016.6
20260507221541 24 0 9.7 22.5 0.00 0.00 0.00 9 1016.8
20260507220044 24 178 9.7 25.7 0.00 0.00 0.00 9 1016.8
20260507214544 24 213 4.8 20.9 0.00 0.00 0.00 10 1017.0
20260507213040 24 281 9.7 22.5 0.00 0.00 0.00 10 1017.3
20260507211543 24 274 8.0 22.5 0.00 0.00 0.00 11 1017.6
20260507210043 23 281 6.4 22.5 0.00 0.00 0.00 11 1017.9
20260507204544 23 299 8.0 20.9 0.00 0.00 0.00 11 1018.1
20260507203039 23 212 6.4 27.4 0.00 0.00 0.00 11 1018.3
20260507201553 23 269 3.2 12.9 0.00 0.00 0.00 13 1018.7
20260507200040 23 288 1.6 11.3 0.00 0.00 0.00 15 1018.7
20260507194548 22 175 4.8 19.3 0.00 0.00 0.00 15 1019.1
20260507193040 21 0 8.0 20.9 0.00 0.00 0.00 16 1019.4
20260507191539 21 186 9.7 17.7 0.00 0.00 0.00 18 1019.7
20260507190047 20 113 6.4 20.9 0.00 0.00 0.00 20 1020.1
20260507184540 19 185 6.4 14.5 0.00 0.00 0.00 20 1020.3
20260507183043 19 154 4.8 14.5 0.00 0.00 0.00 21 1020.6
20260507181540 18 145 9.7 19.3 0.00 0.00 0.00 22 1020.8
20260507180039 18 99 3.2 16.1 0.00 0.00 0.00 23 1021.3
20260507174544 18 177 1.6 14.5 0.00 0.00 0.00 25 1021.5
20260507173040 17 180 3.2 11.3 0.00 0.00 0.00 23 1021.9
20260507171541 16 155 1.6 14.5 0.00 0.00 0.00 25 1022.3
20260507170046 15 195 4.8 11.3 0.00 0.00 0.00 27 1022.4
20260507164540 14 168 6.4 11.3 0.00 0.00 0.00 28 1022.5
20260507163041 13 220 3.2 12.9 0.00 0.00 0.00 31 1022.7
20260507161546 12 125 4.8 16.1 0.00 0.00 0.00 32 1022.9
20260507160043 12 186 6.4 16.1 0.00 0.00 0.00 33 1023.1
20260507154542 12 186 8.0 16.1 0.00 0.00 0.00 32 1023.2
20260507153042 11 175 4.8 12.9 0.00 0.00 0.00 33 1023.3
20260507151544 11 170 4.8 9.7 0.00 0.00 0.00 33 1023.3
20260507150043 11 320 0.0 3.2 0.00 0.00 0.00 33 1023.2
20260507144539 10 0 0.0 4.8 0.00 0.00 0.00 34 1023.3
20260507143045 9 30 0.0 8.0 0.00 0.00 0.00 37 1023.6
20260507141538 8 35 3.2 12.9 0.00 0.00 0.00 38 1023.8
20260507140034 7 346 1.6 8.0 0.00 0.00 0.00 40 1023.8
20260507134543 6 336 1.6 9.7 0.00 0.00 0.00 42 1024.0
20260507133044 5 50 0.0 8.0 0.00 0.00 0.00 44 1024.0
20260507131553 3 0 0.0 6.4 0.00 0.00 0.00 47 1023.9
20260507130040 2 333 1.6 8.0 0.00 0.00 0.00 50 1023.9
20260507124535 2 320 1.6 8.0 0.00 0.00 0.00 50 1023.8
20260507123041 2 9 0.0 9.7 0.00 0.00 0.00 51 1023.6
20260507121541 2 24 0.0 8.0 0.00 0.00 0.00 51 1023.7
20260507120043 2 312 1.6 9.7 0.00 0.00 0.00 51 1023.6
20260507114558 2 329 1.6 8.0 0.00 0.00 0.00 51 1023.8
20260507113045 2 313 1.6 8.0 0.00 0.00 0.00 50 1024.0
20260507111542 2 0 0.0 6.4 0.00 0.00 0.00 50 1024.0
20260507110041 2 319 1.6 8.0 0.00 0.00 0.00 49 1023.9
20260507104540 3 327 1.6 4.8 0.00 0.00 0.00 48 1024.0
20260507103035 3 0 0.0 6.4 0.00 0.00 0.00 48 1023.9
20260507101543 3 0 0.0 4.8 0.00 0.00 0.00 47 1023.9
20260507100045 3 22 0.0 6.4 0.00 0.00 0.00 47 1023.8
20260507094541 3 321 0.0 6.4 0.00 0.00 0.00 46 1023.7
20260507093048 3 62 0.0 6.4 0.00 0.00 0.00 46 1023.6
20260507091535 3 0 0.0 8.0 0.00 0.00 0.00 46 1023.4
20260507090042 4 0 1.6 8.0 0.00 0.00 0.00 46 1023.3
20260507084539 4 71 0.0 6.4 0.00 0.00 0.00 45 1023.1
20260507083041 4 341 3.2 8.0 0.00 0.00 0.00 44 1023.2
20260507081547 4 0 1.6 6.4 0.00 0.00 0.00 45 1022.9
20260507080039 4 28 0.0 11.3 0.00 0.00 0.00 45 1022.9
20260507074556 4 319 0.0 4.8 0.00 0.00 0.00 45 1022.8
20260507073043 5 0 0.0 8.0 0.00 0.00 0.00 44 1022.9
20260507071540 5 319 0.0 3.2 0.00 0.00 0.00 44 1022.8
20260507070041 5 313 3.2 8.0 0.00 0.00 0.00 44 1022.7